Regional Weather Roundup
Issued by NWS Charleston, WV

Home | Current Version | Previous Version | Text Only | Print | Product List | Glossary Off
Versions: 1 2 3 4 5 6 7 8 9 10 11 12 13 14 15 16 17 18 19 20 21 22 23 24 25 26 27 28 29 30 31 32 33 34 35 36 37 38 39 40 41 42 43 44 45 46 47 48 49 50

000
ASUS41 KRLX 290510
RWRRLX
West Virginia Regional Weather Roundup
National Weather Service Charleston WV
100 AM EDT SAT AUG 29 2015

Note: "fair" indicates few or no clouds below 12,000 feet with no
significant weather and/or obstructions to visibility.

WVZ003-290600-
Northern Panhandle of West Virginia

CITY           SKY/WX    TMP DP  RH WIND       PRES   REMARKS
WHEELING       CLEAR     63  53  70 CALM      30.19R
$$

WVZ009-290600-
Northwest West Virginia

CITY           SKY/WX    TMP DP  RH WIND       PRES   REMARKS
PARKERSBURG    CLEAR     58  55  90 CALM      30.20R
$$

WVZ006-290600-
Western West Virginia

CITY           SKY/WX    TMP DP  RH WIND       PRES   REMARKS
HUNTINGTON     PTCLDY    62  61  96 CALM      30.16S
$$

WVZ015-290600-
West Central West Virginia

CITY           SKY/WX    TMP DP  RH WIND       PRES   REMARKS
CHARLESTON     PTCLDY    64  61  90 SE3       30.17S
$$

WVZ022-031-290600-
North Central West Virginia

CITY           SKY/WX    TMP DP  RH WIND       PRES   REMARKS
CLARKSBURG     PTCLDY    60  57  89 CALM      30.19S
MORGANTOWN     CLEAR     61  54  77 CALM      30.20S
$$

WVZ025-035-042-045-290600-
Southern West Virginia

CITY           SKY/WX    TMP DP  RH WIND       PRES   REMARKS
BECKLEY        CLEAR     65  58  78 SE7       30.25S
LOGAN            N/A     68  63  83 CALM      30.20S
BLUEFIELD      CLEAR     69  56  62 S8        30.28S
LEWISBURG      CLEAR     64  61  90 CALM      30.26S
$$

WVZ047-290600-
Northern Mountains of West Virginia

CITY           SKY/WX    TMP DP  RH WIND       PRES   REMARKS
ELKINS         PTCLDY    56  54  93 CALM      30.25S
$$

WVZ052-290600-
Eastern Panhandle of West Virginia

CITY           SKY/WX    TMP DP  RH WIND       PRES   REMARKS
MARTINSBURG    CLEAR     63  59  87 CALM      30.21R
PETERSBURG     CLEAR     61  59  94 CALM      30.21S
$$


USA.gov is the U.S. government's official web portal to all federal, state and local government web resources and services.